We konden geen weer-waarchuwingen ophalen. Ga rechtstreeks naar de Meteoalarm site : www.meteoalarm.eu en controleer daar .



Onweer radar Meer informatie blitzortung!


Regen radar Meer informatie rain snow radar


Bezoek onze andere website:

Template documentation
and downloads

And another site



15 daagse weersverwachting Meyrin (CH)

  • Overzicht
  • Per uur
  • 15 dagen
  • Extra
  • Vergelijk
  • Kaarten
  • Dagkaart
  • Meer »
  • Info
  • Statistieken
  • Directe link
    Temp 6h Neerslag Wind  
 06:40     20:39    Daglengte: 13:59 Vandaag
02:00
17°
 
1
08:00
18°
8.2 mm
1
14:00
23°
 
3
warningclass
20:00
20°
11.6 mm
2
 06:41     20:38    Daglengte: 13:57 Morgen
02:00
19°
 
2
08:00
18°
 
1
14:00
22°
 
3
20:00
22°
 
2
 06:43     20:36    Daglengte: 13:53 Zaterdag 20 Aug
02:00
18°
 
1
08:00
17°
 
1
14:00
24°
 
2
20:00
22°
 
3
Locatie info
Region: Genf
Latitude: 46.2285°N
Longitude: 6.0722°E
445 masl
Postcode: 1217
Temp/Neerslag /Baro Onweer/Dauwpunt
    Temp Baro 1h Neerslag Dauwpunt Wind UV Bewolking  
 06:40     20:39    Daglengte: 13:59 Vandaag
02:00
17°
1013.8 hPa
48%
15.3°
1
Windvlaag: -0.4 m/s
82%
03:00
17°
1013.2 hPa
72%
14.9°
1
Windvlaag: -0.8 m/s
75%
04:00
17°
1013.0 hPa
73%
14.2°
1
Windvlaag: -1.1 m/s
84%
05:00
17°
1012.5 hPa 2.7 mm
77%
14.2°
1
Windvlaag: -0.4 m/s
60%
06:00
17°
1012.4 hPa 2.6 mm
82%
14.1°
1
Windvlaag: -0.3 m/s
81%
07:00
17°
1012.5 hPa 2.9 mm
82%
14.4°
1
Windvlaag: 0.5 m/s
64%
08:00
18°
1012.5 hPa
82%
13.6°
1
Windvlaag: 0.1 m/s
77%
09:00
19°
1012.6 hPa
82%
12.8°
2
Windvlaag: -0.4 m/s
64%
10:00
20°
1012.6 hPa
82%
12.5°
2
Windvlaag: -1.2 m/s
78% warningclass
11:00
21°
1012.8 hPa
82%
12.1°
3
Windvlaag: -1 m/s
18%
12:00
21°
1012.4 hPa
81%
11.3°
3
Windvlaag: -2.4 m/s
42%
13:00
22°
1012.1 hPa
82%
11.0°
3
Windvlaag: -2.7 m/s
59%
14:00
23°
1011.7 hPa
82%
10.7°
3
Windvlaag: -2.1 m/s
81% warningclass
15:00
23°
1011.5 hPa
82%
10.7°
3
Windvlaag: -1.9 m/s
78% warningclass
16:00
23°
1011.3 hPa 3.4 mm
82%
10.3°
4
Windvlaag: -1 m/s
73% warningclass
17:00
21°
1011.4 hPa 4.6 mm
82%
9.5°
3
Windvlaag: -1.1 m/s
76%
18:00
21°
1011.4 hPa 3.6 mm
82%
10.3°
3
Windvlaag: 2.4 m/s
78%
19:00
21°
1011.5 hPa
45%
10.9°
3
Windvlaag: 4.2 m/s
77%
20:00
20°
1011.7 hPa
78%
14.6°
2
Windvlaag: 2.7 m/s
76%
21:00
20°
1012.3 hPa
74%
15.2°
2
Windvlaag: 2.4 m/s
74%
22:00
20°
1012.8 hPa
34%
13.7°
2
Windvlaag: 1.4 m/s
75%
23:00
20°
1013.2 hPa
30%
12.3°
3
Windvlaag: 0.2 m/s
71%
 06:41     20:38    Daglengte: 13:57 Morgen
00:00
19°
1013.5 hPa
30%
12.4°
3
Windvlaag: 0.4 m/s
45%
01:00
19°
1013.5 hPa
37%
13.3°
2
Windvlaag: 0 m/s
50%
02:00
19°
1013.4 hPa
31%
12.5°
2
Windvlaag: -0 m/s
54%
03:00
19°
1013.3 hPa
33%
12.4°
1
Windvlaag: 0.8 m/s
71%
04:00
18°
1013.3 hPa
38%
11.8°
1
Windvlaag: 1.6 m/s
63%
05:00
18°
1013.5 hPa
80%
11.8°
1
Windvlaag: 1.1 m/s
19%
06:00
18°
1014.0 hPa
38%
12.5°
1
Windvlaag: 0.7 m/s
19%
07:00
18°
1014.5 hPa
27%
13.3°
1
Windvlaag: 0.2 m/s
37%
08:00
18°
1014.9 hPa
24%
13.0°
1
Windvlaag: -0.6 m/s
34%
09:00
20°
1015.3 hPa
26%
13.4°
1
Windvlaag: 1.7 m/s
14%
10:00
21°
1015.6 hPa
27%
13.9°
2
Windvlaag: 1.3 m/s
21%
11:00
22°
1015.8 hPa
36%
13.7°
2
Windvlaag: 1.5 m/s
11%
12:00
22°
1015.9 hPa
75%
15.4°
3
Windvlaag: -1.8 m/s
18%
13:00
21°
1016.2 hPa
80%
16.3°
3
Windvlaag: -2.3 m/s
57%
14:00
22°
1016.4 hPa
74%
16.4°
3
Windvlaag: -1.9 m/s
17%
15:00
23°
1016.5 hPa
72%
16.0°
3
Windvlaag: -0.8 m/s
18%
16:00
23°
1016.3 hPa
69%
15.6°
3
Windvlaag: -0.5 m/s
6%
17:00
23°
1016.2 hPa
69%
16.2°
3
Windvlaag: 0.7 m/s
7%
18:00
23°
1016.2 hPa
62%
15.8°
3
Windvlaag: -2.2 m/s
12%
19:00
23°
1016.7 hPa
20%
14.9°
3
Windvlaag: -3.3 m/s
6%
20:00
22°
1017.1 hPa
17%
14.9°
2
Windvlaag: 1.3 m/s
4%
21:00
21°
1017.6 hPa
14%
13.5°
1
Windvlaag: -1 m/s
17%
22:00
20°
1018.1 hPa
14%
12.4°
2
Windvlaag: 0.1 m/s
18%
23:00
19°
1018.4 hPa
21%
11.8°
1
Windvlaag: 0.4 m/s
40%
 06:43     20:36    Daglengte: 13:53 Zaterdag 20 Aug
00:00
19°
1018.6 hPa
21%
9.8°
1
Windvlaag: 0.5 m/s
33%
01:00
18°
1018.6 hPa
21%
10.3°
1
Windvlaag: 0.7 m/s
11%
02:00
18°
1018.6 hPa
21%
9.5°
1
Windvlaag: 0.1 m/s
7%
03:00
17°
1018.5 hPa
21%
10.0°
1
Windvlaag: 0.6 m/s
7%
04:00
17°
1018.6 hPa
21%
10.2°
1
Windvlaag: 0.8 m/s
10%
05:00
16°
1018.5 hPa
21%
10.8°
1
Windvlaag: 0.6 m/s
14%
06:00
16°
1018.5 hPa
25%
10.8°
1
Windvlaag: 0.7 m/s
8%
07:00
16°
1018.9 hPa
24%
10.8°
1
Windvlaag: 0.6 m/s
17%
08:00
17°
1019.3 hPa
21%
10.9°
1
Windvlaag: 3.2 m/s
19%
09:00
19°
1019.3 hPa
25%
12.6°
1
Windvlaag: 3 m/s
20%
10:00
21°
1019.2 hPa
29%
14.3°
1
Windvlaag: 2.8 m/s
20%
11:00
22°
1018.9 hPa
33%
17.3°
1
Windvlaag: 2.8 m/s
20%
12:00
23°
1018.5 hPa
36%
20.0°
2
Windvlaag: 3.9 m/s
19%
13:00
24°
1018.2 hPa
27%
19.7°
2
Windvlaag: 3.2 m/s
56%
14:00
24°
1017.8 hPa
27%
20.4°
2
Windvlaag: 3.3 m/s
43%
15:00
25°
1017.4 hPa
74%
18.3°
2
Windvlaag: 1.8 m/s
43%
16:00
25°
1017.3 hPa
85%
17.8°
3
Windvlaag: 2.2 m/s
33%
17:00
24°
1017.3 hPa
87%
18.5°
3
Windvlaag: 3 m/s
30%
18:00
24°
1017.1 hPa
79%
17.5°
2
Windvlaag: 2.7 m/s
29%
19:00
24°
1017.1 hPa
22%
16.0°
3
Windvlaag: 2.7 m/s
41%
20:00
22°
1017.5 hPa
21%
16.3°
3
Windvlaag: 2.5 m/s
61%
21:00
20°
1018.0 hPa
21%
14.7°
2
Windvlaag: 3.7 m/s
9%
22:00
20°
1018.3 hPa
25%
14.7°
2
Windvlaag: 5 m/s
13%
23:00
19°
1018.3 hPa
21%
14.0°
2
Windvlaag: 4.6 m/s
7%
 06:44     20:34    Daglengte: 13:50 Zondag 21 Aug
00:00
18°
1018.4 hPa
21%
13.7°
1
Windvlaag: 4.5 m/s
10%
01:00
18°
1018.4 hPa
21%
14.0°
1
Windvlaag: 4.4 m/s
35%
Temp/Neerslag /Baro Onweer/Dauwpunt
    Temp Baro Neerslag Dauwpunt Wind Bewolking  
 06:40     20:39    Daglengte: 13:59 Vandaag
02:00
17°
1013.8 hPa   15.3°
1
82%
05:00
17°
1012.5 hPa 2.7 mm 14.2°
1
60%
08:00
18°
1012.5 hPa 5.5 mm 13.6°
1
77%
11:00
21°
1012.8 hPa   12.1°
3
18%
14:00
23°
1011.7 hPa   10.7°
3
81% warningclass
17:00
21°
1011.4 hPa 8.0 mm 9.5°
3
76%
20:00
20°
1011.7 hPa 3.6 mm 14.6°
2
76%
23:00
20°
1013.2 hPa   12.3°
3
71%
 06:41     20:38    Daglengte: 13:57 Morgen
02:00
19°
1013.4 hPa   12.5°
2
54%
05:00
18°
1013.5 hPa   11.8°
1
19%
08:00
18°
1014.9 hPa   13.0°
1
34%
11:00
22°
1015.8 hPa   13.7°
2
11%
14:00
22°
1016.4 hPa   16.4°
3
17%
17:00
23°
1016.2 hPa   16.2°
3
7%
20:00
22°
1017.1 hPa   14.9°
2
4%
23:00
19°
1018.4 hPa   11.8°
1
40%
 06:43     20:36    Daglengte: 13:53 Zaterdag 20 Aug
02:00
18°
1018.6 hPa   9.5°
1
7%
05:00
16°
1018.5 hPa   10.8°
1
14%
08:00
17°
1019.3 hPa   10.9°
1
19%
11:00
22°
1018.9 hPa   17.3°
1
20%
14:00
24°
1017.8 hPa   20.4°
2
43%
17:00
24°
1017.3 hPa   18.5°
3
30%
20:00
22°
1017.5 hPa   16.3°
3
61%
23:00
19°
1018.3 hPa   14.0°
2
7%
 06:44     20:34    Daglengte: 13:50 Zondag 21 Aug
02:00
17°
1018.2 hPa   13.0°
1
35%
05:00
14°
1017.4 hPa 45.7 mm 13.3°
1
1%
08:00
16°
1017.3 hPa 45.7 mm 14.2°
1
1%
11:00
21°
1016.7 hPa 45.7 mm 12.5°
1
1%
14:00
22°
1015.8 hPa 45.7 mm 9.3°
3
1%
17:00
20°
1015.7 hPa 45.8 mm 10.8°
3
1%
20:00
18°
1015.7 hPa 45.8 mm 11.7°
2
1%
23:00
15°
1016.3 hPa 45.8 mm 9.5°
2
1%
 06:45     20:32    Daglengte: 13:47 Maandag 22 Aug
02:00
15°
1015.7 hPa 45.8 mm 9.1°
2
0%
05:00
14°
1015.8 hPa 45.8 mm 9.3°
2
0%
08:00
15°
1016.4 hPa 45.8 mm 10.6°
1
0%
11:00
21°
1015.8 hPa 45.8 mm 10.8°
4
0%
14:00
25°
1014.8 hPa 45.8 mm 10.1°
5
0%
17:00
25°
1014.2 hPa 45.8 mm 10.9°
5
0%
20:00
21°
1014.6 hPa 45.8 mm 13.3°
3
0%
23:00
17°
1015.7 hPa 45.8 mm 11.9°
2
0%
 06:46     20:31    Daglengte: 13:45 Dinsdag 23 Aug
02:00
15°
1016.2 hPa 45.8 mm 12.1°
2
0%
05:00
14°
1016.7 hPa 45.8 mm 11.3°
2
0%
08:00
15°
1017.3 hPa 45.8 mm 12.0°
2
0%
11:00
22°
1016.2 hPa 45.8 mm 11.1°
4
0%
14:00
26°
1015.2 hPa 45.8 mm 9.7°
5
0%
17:00
26°
1014.7 hPa 45.8 mm 9.5°
4
0%
20:00
21°
1015.6 hPa 45.8 mm 12.6°
3
1%
23:00
18°
1016.7 hPa 45.8 mm 10.3°
2
1%
 06:48     20:29    Daglengte: 13:41 Woensdag 24 Aug
02:00
15°
1016.5 hPa 45.8 mm 11.3°
1
1%
05:00
14°
1016.7 hPa 45.8 mm 11.2°
1
1%
08:00
15°
1017.3 hPa 45.8 mm 12.0°
1
1%
11:00
22°
1016.2 hPa 45.8 mm 12.5°
2
1%
14:00
27°
Voelt als: 26.5°
1014.9 hPa 45.8 mm 11.0°
2
0%
17:00
27°
Voelt als: 26.8°
1014.5 hPa 45.8 mm 11.8°
2
0%
20:00
21°
1015.4 hPa 45.8 mm 15.3°
2
0%
23:00
17°
1017.1 hPa   12.2°
2
0%
 06:49     20:27    Daglengte: 13:38 Donderdag 25 Aug
02:00
16°
1017.7 hPa 91.5 mm 12.4°
1
0%
08:00
17°
1017.6 hPa 91.5 mm 13.7°
1
0%
14:00
29°
Voelt als: 28.2°
1015.2 hPa 91.5 mm 12.6°
1
1%
20:00
24°
1014.6 hPa 91.5 mm 15.6°
1
1%
 06:50     20:25    Daglengte: 13:35 Vrijdag 26 Aug
02:00
18°
1016.7 hPa 91.5 mm 13.8°
0
0%
08:00
18°
1016.3 hPa 91.5 mm 14.6°
1
0%
14:00
30°
Voelt als: 29.2°
1013.8 hPa 91.5 mm 13.5°
1
1%
20:00
24°
1012.8 hPa 91.5 mm 17.6°
2
1%
 06:51     20:23    Daglengte: 13:32 Zaterdag 27 Aug
02:00
18°
1016.6 hPa 97.3 mm 18.0°
1
1%
08:00
18°
1016.5 hPa 99.3 mm 16.9°
0
1%
14:00
26°
1016.2 hPa 99.4 mm 17.0°
1
1%
20:00
22°
1017.4 hPa 0.6 mm 16.1°
1
48%
 06:53     20:21    Daglengte: 13:28 Zondag 28 Aug
02:00
17°
1019.3 hPa 1.4 mm 14.7°
1
52%
08:00
17°
1019.6 hPa 0.6 mm 14.8°
1
48%
14:00
28°
1018.3 hPa 0.3 mm 15.4°
1
36%
20:00
22°
1018.6 hPa 0.7 mm 15.9°
0
49%
 06:54     20:20    Daglengte: 13:26 Maandag 29 Aug
02:00
17°
1020.2 hPa 0.7 mm 14.2°
1
39%
08:00
17°
1020.2 hPa 0.6 mm 14.2°
1
42%
14:00
28°
1018.7 hPa 0.4 mm 14.9°
1
40%
20:00
21°
1018.5 hPa 0.5 mm 15.3°
1
46%
 06:55     20:18    Daglengte: 13:23 Dinsdag 30 Aug
02:00
16°
1019.9 hPa 1.6 mm 13.8°
1
50%
08:00
16°
1019.9 hPa 0.5 mm 13.7°
1
39%
14:00
26°
1017.9 hPa 0.7 mm 14.6°
1
35%
20:00
21°
1017.5 hPa 0.6 mm 14.6°
1
38%
 06:56     20:16    Daglengte: 13:20 Woensdag 31 Aug
02:00
16°
1019.1 hPa 1.0 mm 13.2°
1
37%
08:00
16°
1018.8 hPa 0.4 mm 13.2°
1
45%
14:00
26°
1016.9 hPa 0.5 mm 14.6°
1
41%
20:00
20°
1017.1 hPa 1.8 mm 14.7°
1
46%
 06:58     20:14    Daglengte: 13:16 Donderdag 01 Sep
02:00
15°
1018.7 hPa   12.6°
1
42%
08:00
15°
1018.7 hPa 0.4 mm 12.5°
1
39%
14:00
25°
1017.1 hPa 0.7 mm 13.7°
1
43%
20:00
19°
1017.5 hPa 0.5 mm 13.7°
1
43%
  CAPE Lifted Index Hail Supercell Tornado SRH 3km CL BTM PRES CL TOP PRES Swiss DWD icon SMHI TS
 06:40     20:39    Daglengte: 13:59 Vandaag
02:00 19 J/kg 0.5 K 0 % 0 % 0 % 0 m²/s² 0 0 0.98 80
03:00 3 J/kg 0.7 K 0 % 0 % 0 % 0 m²/s² 0 0 1.96 3
04:00 4 J/kg 1.2 K 0 % 0 % 0 % 0 m²/s² 0 0 2.37 3
05:00 35 J/kg 0.2 K 0 % 0 % 0 % 0 m²/s² 0 0 1.88 80
06:00 55 J/kg -0.1 K 0 % 0 % 0 % 0 m²/s² 0 0 2.09 3
07:00 13 J/kg 0.5 K 0 % 0 % 0 % 0 m²/s² 0 0 2.48 80
08:00 23 J/kg 0.0 K 0 % 0 % 0 % 0 m²/s² 0 0 2.04 3
09:00 98 J/kg -0.8 K 0 % 0 % 0 % 0 m²/s² 0 0 1.99 3
10:00 163 J/kg -1.1 K 0 % 0 % 0 % 0 m²/s² 0 0 1.75 95
11:00 218 J/kg -1.1 K 0 % 0 % 0 % 0 m²/s² 0 0 1.15 80
12:00 249 J/kg -1.0 K 0 % 0 % 0 % 0 m²/s² 0 0 1.61 80
13:00 226 J/kg -0.8 K 0 % 0 % 0 % 0 m²/s² 0 0 2.14 3
14:00 200 J/kg -0.4 K 0 % 0 % 0 % 0 m²/s² 0 0 3.17 95
15:00 338 J/kg -1.1 K 0 % 0 % 0 % 0 m²/s² 0 0 1.54 95
16:00 470 J/kg -2.1 K 0 % 0 % 0 % 0 m²/s² 0 0 1.11 95
17:00 420 J/kg -2.2 K 0 % 0 % 0 % 0 m²/s² 0 0 0.44 80
18:00 475 J/kg -2.1 K 0 % 0 % 0 % 0 m²/s² 0 0 -0.3 3
19:00 484 J/kg -1.9 K 0 % 0 % 0 % 0 m²/s² 0 0 -0.22 3
20:00 437 J/kg -1.6 K 0 % 0 % 0 % 0 m²/s² 0 0 0.38 3
21:00 398 J/kg -1.7 K 0 % 0 % 0 % 0 m²/s² 0 0 -0.02 3
22:00 305 J/kg -1.1 K 0 % 0 % 0 % 0 m²/s² 0 0 -0.08 3
23:00 283 J/kg -0.8 K 0 % 0 % 0 % 0 m²/s² 0 0 -0.59 3
 06:41     20:38    Daglengte: 13:57 Morgen
00:00 312 J/kg -1.5 K 0 % 0 % 0 % 0 m²/s² 0 0 -1.5 3
01:00 294 J/kg -1.5 K 0 % 0 % 0 % 0 m²/s² 0 0 -1.02 3
02:00 262 J/kg -1.2 K 0 % 0 % 0 % 0 m²/s² 0 0 -0.84 3
03:00 257 J/kg -1.2 K 0 % 0 % 0 % 0 m²/s² 0 0 -0.93 3
04:00 180 J/kg -1.1 K 0 % 0 % 0 % 0 m²/s² 0 0 -0.62 3
05:00 173 J/kg -0.7 K 0 % 0 % 0 % 0 m²/s² 0 0 -0.31 2
06:00 180 J/kg -0.4 K 0 % 0 % 0 % 0 m²/s² 0 0 0.41 2
07:00 172 J/kg 0.3 K 0 % 0 % 0 % 0 m²/s² 0 0 1.5 3
08:00 194 J/kg 0.6 K 0 % 0 % 0 % 0 m²/s² 0 0 1.53 2
09:00 250 J/kg 0.8 K 0 % 0 % 0 % 0 m²/s² 0 0 1.73 2
10:00 307 J/kg 0.2 K 0 % 0 % 0 % 0 m²/s² 0 0 1.19 2
11:00 303 J/kg 0.2 K 0 % 0 % 0 % 0 m²/s² 0 0 1.61 3
12:00 286 J/kg 0.3 K 0 % 0 % 0 % 0 m²/s² 0 0 1.77 2
13:00 294 J/kg 0.0 K 0 % 0 % 0 % 0 m²/s² 0 0 1.89 3
14:00 266 J/kg 0.1 K 0 % 0 % 0 % 0 m²/s² 0 0 2.38 2
15:00 367 J/kg -1.0 K 0 % 0 % 0 % 0 m²/s² 0 0 0.41 2
16:00 337 J/kg -0.5 K 0 % 0 % 0 % 0 m²/s² 0 0 1.6 2
17:00 311 J/kg -0.5 K 0 % 0 % 0 % 0 m²/s² 0 0 0.7 2
18:00 286 J/kg -0.4 K 0 % 0 % 0 % 0 m²/s² 0 0 1.49 1
19:00 200 J/kg 0.1 K 0 % 0 % 0 % 0 m²/s² 0 0 2.14 2
20:00 177 J/kg 0.2 K 0 % 0 % 0 % 0 m²/s² 0 0 1.91 1
21:00 107 J/kg 0.9 K 0 % 0 % 0 % 0 m²/s² 0 0 3.15 0
22:00 62 J/kg 1.8 K 0 % 0 % 0 % 0 m²/s² 0 0 4.56 0
23:00 16 J/kg 2.5 K 0 % 0 % 0 % 0 m²/s² 0 0 5.44 0
 06:43     20:36    Daglengte: 13:53 Zaterdag 20 Aug
00:00 2 J/kg 3.2 K 0 % 0 % 0 % 0 m²/s² 0 0 6.05 0
01:00 0 J/kg 3.6 K 0 % 0 % 0 % 0 m²/s² 0 0 6.06 0
02:00 1 J/kg 3.7 K 0 % 0 % 0 % 0 m²/s² 0 0 5.83 0
03:00 0 J/kg 3.6 K 0 % 0 % 0 % 0 m²/s² 0 0 5.58 0
04:00 0 J/kg 3.2 K 0 % 0 % 0 % 0 m²/s² 0 0 4.82 0
05:00 1 J/kg 2.5 K 0 % 0 % 0 % 0 m²/s² 0 0 3.82 1
06:00 0 J/kg 2.4 K 0 % 0 % 0 % 0 m²/s² 0 0 3.72 2
07:00 4 J/kg 1.1 K 0 % 0 % 0 % 0 m²/s² 0 0 2.12 2
08:00 30 J/kg -0.3 K 0 % 0 % 0 % 0 m²/s² 0 0 0.75 3
09:00 244 J/kg -1.5 K 0 % 0 % 0 % 0 m²/s² 0 0 -0.75 2
10:00 544 J/kg -2.3 K 0 % 0 % 0 % 0 m²/s² 0 0 -1.4 2
11:00 712 J/kg -2.5 K 0 % 0 % 0 % 0 m²/s² 0 0 -2.2 2
12:00 833 J/kg -3.1 K 0 % 0 % 0 % 0 m²/s² 0 0 -1.39 2
13:00 945 J/kg -3.2 K 0 % 0 % 0 % 0 m²/s² 0 0 -0.2 3
14:00 764 J/kg -2.9 K 0 % 0 % 0 % 0 m²/s² 0 0 0.55 2
15:00 882 J/kg -3.2 K 0 % 0 % 0 % 0 m²/s² 0 0 1.15 2
16:00 1014 J/kg -3.6 K 0 % 0 % 0 % 0 m²/s² 0 0 0.87 2
17:00 1013 J/kg -3.5 K 0 % 0 % 0 % 0 m²/s² 0 0 -0.32 1
18:00 839 J/kg -3.0 K 0 % 0 % 0 % 0 m²/s² 0 0 1.71 0
19:00 760 J/kg -3.0 K 0 % 0 % 0 % 0 m²/s² 0 0 2.07 3
20:00 570 J/kg -2.4 K 0 % 0 % 0 % 0 m²/s² 0 0 2.55 3
21:00 266 J/kg -1.2 K 0 % 0 % 0 % 0 m²/s² 0 0 3.51 1
22:00 83 J/kg 0.0 K 0 % 0 % 0 % 0 m²/s² 0 0 4.95 1
23:00 49 J/kg 0.3 K 0 % 0 % 0 % 0 m²/s² 0 0 5.82 1
 06:44     20:34    Daglengte: 13:50 Zondag 21 Aug
00:00 69 J/kg 0.2 K 0 % 0 % 0 % 0 m²/s² 0 0 5.87 2
01:00 68 J/kg 0.0 K 0 % 0 % 0 % 0 m²/s² 0 0 5.97 3
Temp Baro Wind Neerslag
  EWN Forecast EWN WRFDA DWD ICON FMI HIRLAM MET Norway GFS
 06:40     20:39    Daglengte: 13:59 Vandaag
02:00 17.5° 1013.8 hPa 1.1 m/s 0.0 mm 16.6° 1012.8 hPa 2.7 m/s 12.4 mm 17.8° 1013.2 hPa 0.9 m/s -1.6 mm 15.9° 1015.4 hPa 0.2 m/s 0.0 mm 15.2° 1015.0 hPa 1.9 m/s
05:00 17.0° 1012.5 hPa 0.8 m/s 2.7 mm 16.1° 1010.8 hPa 3.2 m/s 37.4 mm 17.2° 1012.4 hPa 0.7 m/s 0.4 mm 15.2° 1014.0 hPa 0.3 m/s 0.0 mm 14.7° 1014.1 hPa 0.8 m/s
08:00 17.8° 1012.5 hPa 1.5 m/s 5.5 mm 18.7° 1010.8 hPa 4.1 m/s 37.4 mm 17.5° 1012.9 hPa 0.9 m/s 1.3 mm 17.7° 1012.6 hPa 2.9 m/s 0.0 mm 15.7° 1013.9 hPa 1.1 m/s
11:00 20.7° 1012.8 hPa 2.6 m/s 0.0 mm 21.5° 1011.2 hPa 5.5 m/s 37.4 mm 19.5° 1013.6 hPa 0.9 m/s 2.0 mm 23.4° 1011.9 hPa 7.8 m/s 0.0 mm 21.3° 1013.6 hPa 1.1 m/s
14:00 22.7° 1011.7 hPa 3.1 m/s 0.0 mm 24.1° 1007.7 hPa 5.5 m/s 37.4 mm 20.4° 1012.9 hPa 1.3 m/s 1.4 mm 26.8° 1010.5 hPa 7.4 m/s 0.0 mm 23.5° 1012.2 hPa 1.5 m/s
17:00 21.0° 1011.4 hPa 3.2 m/s 8.0 mm 23.6° 1007.6 hPa 6.6 m/s 38.2 mm 19.2° 1012.8 hPa 1.9 m/s 4.1 mm 26.9° 1010.0 hPa 7.5 m/s 0.0 mm 21.1° 1012.6 hPa 1.6 m/s
20:00 20.3° 1011.7 hPa 2.3 m/s 3.6 mm 21.2° 1008.5 hPa 3.9 m/s 39.7 mm 19.1° 1013.0 hPa 1.4 m/s 0.4 mm 22.4° 1010.9 hPa 4.3 m/s 0.0 mm 18.3° 1013.2 hPa 0.4 m/s
23:00 19.5° 1013.2 hPa 2.8 m/s 0.0 mm 19.6° 1011.0 hPa 3.3 m/s 41.7 mm 18.5° 1013.7 hPa 0.8 m/s 0.0 mm 21.9° 1011.9 hPa 5.0 m/s 0.0 mm 16.2° 1014.4 hPa 0.2 m/s
 06:41     20:38    Daglengte: 13:57 Morgen
02:00 18.6° 1013.4 hPa 1.6 m/s 0.0 mm 18.2° 1011.2 hPa 2.5 m/s 47.3 mm 18.0° 1013.9 hPa 0.4 m/s 0.0 mm 21.2° 1011.6 hPa 5.6 m/s 0.0 mm 15.6° 1014.7 hPa 1.0 m/s
05:00 18.2° 1013.5 hPa 1.1 m/s 0.0 mm 17.7° 1011.6 hPa 2.1 m/s 48.7 mm 17.5° 1013.9 hPa 0.4 m/s 0.0 mm 21.0° 1012.0 hPa 4.6 m/s 0.0 mm 15.8° 1014.1 hPa 1.4 m/s
08:00 18.5° 1014.9 hPa 1.2 m/s 0.0 mm 19.4° 1013.7 hPa 1.0 m/s 48.7 mm 17.9° 1015.4 hPa 1.0 m/s 0.0 mm 20.7° 1012.8 hPa 3.0 m/s 0.0 mm 15.9° 1015.8 hPa 1.2 m/s
11:00 21.6° 1015.8 hPa 2.5 m/s 0.0 mm 23.0° 1014.7 hPa 3.2 m/s 49.0 mm 21.5° 1016.0 hPa 2.4 m/s 0.0 mm 22.7° 1014.4 hPa 4.4 m/s 0.0 mm 19.1° 1016.2 hPa 0.3 m/s
14:00 21.8° 1016.4 hPa 2.6 m/s 0.0 mm 24.7° 1014.8 hPa 3.6 m/s 49.7 mm 22.9° 1016.7 hPa 5.2 m/s 0.2 mm 21.7° 1015.0 hPa 2.3 m/s 0.0 mm 21.0° 1016.5 hPa 1.8 m/s
17:00 23.2° 1016.2 hPa 3.0 m/s 0.0 mm 23.2° 1014.8 hPa 4.9 m/s 51.7 mm 23.5° 1016.4 hPa 4.7 m/s 0.1 mm 23.7° 1015.4 hPa 2.8 m/s 0.0 mm 23.4° 1016.5 hPa 1.9 m/s
20:00 22.0° 1017.1 hPa 1.8 m/s 0.0 mm 23.2° 1015.7 hPa 2.1 m/s 52.9 mm 22.1° 1017.4 hPa 2.6 m/s 0.0 mm 23.1° 1016.4 hPa 0.8 m/s 0.0 mm 18.5° 1017.4 hPa 1.2 m/s
23:00 19.2° 1018.4 hPa 1.4 m/s 0.0 mm 20.9° 1017.2 hPa 3.3 m/s 52.9 mm 19.0° 1018.4 hPa 1.1 m/s 0.0 mm 17.6° 1018.6 hPa 1.0 m/s
 06:43     20:36    Daglengte: 13:53 Zaterdag 20 Aug
02:00 17.5° 1018.6 hPa 1.0 m/s 0.0 mm 19.2° 1017.0 hPa 2.5 m/s 52.9 mm 17.3° 1018.7 hPa 0.8 m/s 0.0 mm 15.8° 1018.4 hPa 0.5 m/s
05:00 16.2° 1018.5 hPa 0.6 m/s 0.0 mm 17.2° 1016.6 hPa 0.4 m/s 52.9 mm 15.4° 1018.8 hPa 0.6 m/s 0.0 mm 14.6° 1018.5 hPa 0.4 m/s
08:00 17.2° 1019.3 hPa 0.6 m/s 0.0 mm 19.7° 1017.5 hPa 1.7 m/s 52.9 mm 16.6° 1019.8 hPa 0.3 m/s 0.0 mm 16.0° 1019.0 hPa 0.5 m/s
11:00 21.7° 1018.9 hPa 1.0 m/s 0.0 mm 20.9° 1017.7 hPa 0.4 m/s 53.7 mm 21.9° 1019.2 hPa 1.2 m/s 0.0 mm 22.1° 1018.4 hPa 1.1 m/s
14:00 24.1° 1017.8 hPa 2.4 m/s 0.0 mm 20.4° 1017.8 hPa 2.9 m/s 59.0 mm 25.0° 1017.8 hPa 2.3 m/s 0.0 mm 24.1° 1017.7 hPa 1.8 m/s
17:00 24.2° 1017.3 hPa 2.8 m/s 0.0 mm 22.4° 1017.1 hPa 2.3 m/s 60.3 mm 24.7° 1017.3 hPa 2.9 m/s 0.1 mm 24.4° 1017.1 hPa 2.5 m/s
20:00 22.4° 1017.5 hPa 2.7 m/s 0.0 mm 22.2° 1016.7 hPa 1.4 m/s 61.0 mm 22.5° 1017.7 hPa 3.1 m/s 0.0 mm 18.9° 1018.1 hPa 2.0 m/s
23:00 18.9° 1018.3 hPa 1.7 m/s 0.0 mm 18.7° 1016.7 hPa 2.7 m/s 61.0 mm 18.9° 1018.7 hPa 1.5 m/s 0.0 mm 15.8° 1019.0 hPa 1.1 m/s
 06:44     20:34    Daglengte: 13:50 Zondag 21 Aug
02:00 16.9° 1018.2 hPa 1.4 m/s 0.0 mm 17.3° 1016.2 hPa 2.3 m/s 61.0 mm 16.8° 1018.7 hPa 1.2 m/s 0.0 mm 14.7° 1018.5 hPa 1.3 m/s
05:00 14.3° 1017.4 hPa 0.9 m/s 45.7 mm 14.3° 1017.4 hPa 0.9 m/s 45.7 mm
08:00 15.5° 1017.3 hPa 1.0 m/s 45.7 mm 15.5° 1017.3 hPa 1.0 m/s 45.7 mm
11:00 21.0° 1016.7 hPa 1.1 m/s 45.7 mm 21.0° 1016.7 hPa 1.1 m/s 45.7 mm
14:00 22.2° 1015.8 hPa 3.1 m/s 45.7 mm 22.2° 1015.8 hPa 3.1 m/s 45.7 mm
17:00 20.3° 1015.7 hPa 2.7 m/s 45.8 mm 20.3° 1015.7 hPa 2.7 m/s 45.8 mm
20:00 18.3° 1015.7 hPa 2.1 m/s 45.8 mm 18.3° 1015.7 hPa 2.1 m/s 45.8 mm
23:00 15.1° 1016.3 hPa 2.4 m/s 45.8 mm 15.1° 1016.3 hPa 2.4 m/s 45.8 mm
 06:45     20:32    Daglengte: 13:47 Maandag 22 Aug
02:00 14.9° 1015.7 hPa 2.4 m/s 45.8 mm 14.9° 1015.7 hPa 2.4 m/s 45.8 mm
05:00 13.8° 1015.8 hPa 1.6 m/s 45.8 mm 13.8° 1015.8 hPa 1.6 m/s 45.8 mm
08:00 14.9° 1016.4 hPa 1.2 m/s 45.8 mm 14.9° 1016.4 hPa 1.2 m/s 45.8 mm
11:00 21.3° 1015.8 hPa 4.2 m/s 45.8 mm 21.3° 1015.8 hPa 4.2 m/s 45.8 mm
14:00 24.7° 1014.8 hPa 5.2 m/s 45.8 mm 24.7° 1014.8 hPa 5.2 m/s 45.8 mm
17:00 25.1° 1014.2 hPa 4.8 m/s 45.8 mm 25.1° 1014.3 hPa 4.8 m/s 45.8 mm
20:00 21.2° 1014.6 hPa 3.5 m/s 45.8 mm 21.2° 1014.6 hPa 3.5 m/s 45.8 mm
23:00 17.3° 1015.7 hPa 2.3 m/s 45.8 mm 17.3° 1015.7 hPa 2.3 m/s 45.8 mm
 06:46     20:31    Daglengte: 13:45 Dinsdag 23 Aug
02:00 15.5° 1016.2 hPa 1.7 m/s 45.8 mm 15.5° 1016.2 hPa 1.7 m/s 45.8 mm
05:00 14.1° 1016.7 hPa 1.7 m/s 45.8 mm 14.1° 1016.7 hPa 1.7 m/s 45.8 mm
08:00 15.4° 1017.3 hPa 1.5 m/s 45.8 mm 15.4° 1017.3 hPa 1.5 m/s 45.8 mm
11:00 21.6° 1016.2 hPa 3.5 m/s 45.8 mm 21.6° 1016.2 hPa 3.5 m/s 45.8 mm
14:00 25.6° 1015.2 hPa 4.6 m/s 45.8 mm 25.6° 1015.2 hPa 4.6 m/s 45.8 mm
17:00 25.7° 1014.7 hPa 4.4 m/s 45.8 mm 25.7° 1014.7 hPa 4.4 m/s 45.8 mm
20:00 20.5° 1015.6 hPa 2.7 m/s 45.8 mm 20.5° 1015.6 hPa 2.7 m/s 45.8 mm
23:00 17.6° 1016.7 hPa 2.2 m/s 45.8 mm 17.6° 1016.7 hPa 2.2 m/s 45.8 mm
 06:48     20:29    Daglengte: 13:41 Woensdag 24 Aug
02:00 15.3° 1016.5 hPa 1.5 m/s 45.8 mm 15.3° 1016.5 hPa 1.5 m/s 45.8 mm
05:00 14.0° 1016.7 hPa 1.5 m/s 45.8 mm 14.0° 1016.7 hPa 1.5 m/s 45.8 mm
08:00 15.2° 1017.3 hPa 1.2 m/s 45.8 mm 15.2° 1017.3 hPa 1.2 m/s 45.8 mm
11:00 22.2° 1016.2 hPa 1.6 m/s 45.8 mm 22.2° 1016.2 hPa 1.6 m/s 45.8 mm
14:00 26.6° 1014.9 hPa 1.7 m/s 45.8 mm 26.5° 1014.9 hPa 1.7 m/s 45.8 mm
17:00 27.0° 1014.5 hPa 2.2 m/s 45.8 mm 27.0° 1014.5 hPa 2.2 m/s 45.8 mm
20:00 20.9° 1015.4 hPa 2.0 m/s 45.8 mm 20.9° 1015.4 hPa 2.0 m/s 45.8 mm
23:00 17.2° 1017.1 hPa 1.6 m/s 45.8 mm 17.2° 1017.1 hPa 1.6 m/s 45.8 mm
 06:49     20:27    Daglengte: 13:38 Donderdag 25 Aug
02:00 15.8° 1017.7 hPa 0.9 m/s 45.8 mm 15.8° 1017.7 hPa 0.9 m/s 45.8 mm
08:00 16.6° 1017.6 hPa 1.1 m/s 45.8 mm 16.6° 1017.6 hPa 1.1 m/s 45.8 mm
14:00 28.8° 1015.2 hPa 0.8 m/s 45.8 mm 28.8° 1015.2 hPa 0.8 m/s 45.8 mm
20:00 23.7° 1014.6 hPa 1.4 m/s 45.8 mm 23.7° 1014.6 hPa 1.4 m/s 45.8 mm
 06:50     20:25    Daglengte: 13:35 Vrijdag 26 Aug
02:00 18.0° 1016.7 hPa 0.5 m/s 45.8 mm 18.0° 1016.7 hPa 0.5 m/s 45.8 mm
08:00 18.4° 1016.3 hPa 0.6 m/s 45.8 mm 18.4° 1016.3 hPa 0.6 m/s 45.8 mm
14:00 29.8° 1013.8 hPa 0.6 m/s 45.8 mm 29.8° 1013.8 hPa 0.6 m/s 45.8 mm
20:00 23.7° 1012.8 hPa 2.2 m/s 45.8 mm 23.7° 1012.8 hPa 2.2 m/s 45.8 mm
 06:51     20:23    Daglengte: 13:32 Zaterdag 27 Aug
02:00 18.3° 1016.6 hPa 0.9 m/s 49.7 mm 18.3° 1016.6 hPa 0.9 m/s 49.7 mm
08:00 18.3° 1016.5 hPa 0.2 m/s 49.7 mm 18.3° 1016.5 hPa 0.2 m/s 49.7 mm
14:00 26.3° 1016.2 hPa 0.8 m/s 49.7 mm 26.3° 1016.2 hPa 0.8 m/s 49.7 mm
20:00 22.4° 1017.4 hPa 1.0 m/s 0.6 mm
 06:53     20:21    Daglengte: 13:28 Zondag 28 Aug
02:00 16.9° 1019.3 hPa 1.4 m/s 1.4 mm
08:00 16.8° 1019.6 hPa 1.1 m/s 0.6 mm
14:00 28.5° 1018.3 hPa 1.3 m/s 0.3 mm
20:00 22.0° 1018.6 hPa 0.4 m/s 0.7 mm
 06:54     20:20    Daglengte: 13:26 Maandag 29 Aug
02:00 16.9° 1020.2 hPa 1.3 m/s 0.7 mm
08:00 16.7° 1020.2 hPa 1.1 m/s 0.6 mm
14:00 27.6° 1018.7 hPa 1.3 m/s 0.4 mm
20:00 21.3° 1018.5 hPa 1.0 m/s 0.5 mm
 06:55     20:18    Daglengte: 13:23 Dinsdag 30 Aug
02:00 16.1° 1019.9 hPa 1.1 m/s 1.6 mm
08:00 15.9° 1019.9 hPa 1.0 m/s 0.5 mm
14:00 26.4° 1017.9 hPa 1.1 m/s 0.7 mm
20:00 20.9° 1017.5 hPa 1.1 m/s 0.6 mm
 06:56     20:16    Daglengte: 13:20 Woensdag 31 Aug
02:00 15.9° 1019.1 hPa 1.3 m/s 1.0 mm
08:00 15.7° 1018.8 hPa 1.1 m/s 0.4 mm
14:00 25.8° 1016.9 hPa 1.4 m/s 0.5 mm
20:00 19.6° 1017.1 hPa 1.0 m/s 1.8 mm
 06:58     20:14    Daglengte: 13:16 Donderdag 01 Sep
02:00 14.9° 1018.7 hPa 1.2 m/s 0.0 mm
08:00 14.7° 1018.7 hPa 1.2 m/s 0.4 mm
14:00 24.8° 1017.1 hPa 1.3 m/s 0.7 mm
20:00 19.0° 1017.5 hPa 0.9 m/s 0.5 mm
FMI Hirlam - 7.5 km EWN WRFDA - 12 km DWD ICON - 7 km GFS - 25 km Basiskaart






























































Updatetijd (Europe/Amsterdam) Resolutie Lengte Stap
FMI Hirlam 19:15, 01:15, 07:15, 13:15 7.5 km 49h 1h
EWN WRFDA 22:30, 04:30, 10:30, 16:30 12 km 73h 1h
DWD ICON 23:45, 05:45, 11:45, 17:45 7 km 75h 1h
GFS 20:00, 02:00, 08:00, 14:00 25 km 237h 3h
30+ mm
25-30 mm
20-25 mm
15-20 mm
10-15 mm
6-10 mm
4-6 mm
2-4 mm
1-2 mm
0.5-1 mm
0.2-0.5 mm
0.1-0.2 mm
30+ mm
25-30 mm
20-25 mm
15-20 mm
10-15 mm
6-10 mm
4-6 mm
2-4 mm
1-2 mm
0.5-1 mm
0.2-0.5 mm
0.1-0.2 mm
Sneeuwval
Natte sneeuw
Hagel
Vorst
30+ mm
25-30 mm
20-25 mm
15-20 mm
10-15 mm
6-10 mm
4-6 mm
2-4 mm
1-2 mm
0.5-1 mm
0.2-0.5 mm
0.1-0.2 mm
Sneeuwval
Natte sneeuw
Hagel
Vorst
Onweer
50 mm
40 mm
30 mm
26 mm
22 mm
18 mm
14 mm
10 mm
9 mm
8 mm
7 mm
6 mm
5 mm
4.5 mm
4 mm
3.5 mm
3 mm
2.5 mm
2 mm
1.5 mm
1 mm
0.8 mm
0.6 mm
0.4 mm
0.2 mm
0.05 mm
35°
30°
25°
20°
15°
10°
-5°
-10°
-15°
-20°
-25°
-30°
-35°
33> m/s
29 m/s
25 m/s
21 m/s
17 m/s
14 m/s
11 m/s
8 m/s
5 m/s
3 m/s
0 m/s
2600 J/kg
2400 J/kg
2200 J/kg
2000 J/kg
1800 J/kg
1600 J/kg
1400 J/kg
1200 J/kg
1000 J/kg
800 J/kg
600 J/kg
400 J/kg
200 J/kg
70 dBZ
65 dBZ
60 dBZ
55 dBZ
50 dBZ
45 dBZ
40 dBZ
35 dBZ
30 dBZ
25 dBZ
20 dBZ
15 dBZ
10 dBZ
5 dBZ
-1 K
-2 K
-3 K
-4 K
-5 K
-6 K
-7 K
-8 K
-9 K
950 m²/s²
900 m²/s²
850 m²/s²
800 m²/s²
750 m²/s²
700 m²/s²
650 m²/s²
600 m²/s²
550 m²/s²
500 m²/s²
450 m²/s²
400 m²/s²
350 m²/s²
300 m²/s²
250 m²/s²
200 m²/s²
150 m²/s²
100 m²/s²
46 m/s
44 m/s
42 m/s
40 m/s
38 m/s
36 m/s
34 m/s
32 m/s
30 m/s
28 m/s
26 m/s
24 m/s
22 m/s
20 m/s
16 m/s
12 m/s
8 m/s
4 m/s
30 m/s
28 m/s
26 m/s
24 m/s
22 m/s
20 m/s
18 m/s
16 m/s
14 m/s
12 m/s
10 m/s
8 m/s
6 m/s
4 m/s
2 m/s
3.0
2.8
2.6
2.4
2.2
2.0
1.8
1.6
1.4
1.2
1.0
0.8
0.6
0.4
0.2
15
14
13
12
11
10
9
8
7
6
5
4
3
2
1
90%
80%
70%
60%
50%
40%
30%
20%
10%
42
40
38
36
34
32
30
28
26
24
22
20
18
16
14
12
90+ cm
80-90 cm
70-80 cm
60-70 cm
50-60 cm
40-50 cm
30-40 cm
20-30 cm
10-20 cm
1-10 cm
Sneeuwval
Natte sneeuw
Regen
>120 mm
115 mm
110 mm
105 mm
100 mm
95 mm
90 mm
85 mm
80 mm
75 mm
70 mm
65 mm
60 mm
55 mm
50 mm
45 mm
45 mm
40 mm
35 mm
30 mm
25 mm
20 mm
15 mm
10 mm
5 mm
0.1 mm
960 hPa
880 hPa
800 hPa
720 hPa
640 hPa
560 hPa
584 gpdm
568 gpdm
552 gpdm
536 gpdm
520 gpdm
504 gpdm
488 gpdm
Extreem zwaar Noodweer Kans op onweer
15% 15% 5% 50% 15%

Dag




Kaart






35°
30°
25°
20°
15°
10°
-5°
-10°
-15°
-20°
-25°
-30°
-35°
33> m/s
29 m/s
25 m/s
21 m/s
17 m/s
14 m/s